This is the latest recevied weather packets stored in our database for station/object KC4JIR. If no packets are shown the sender has not sent any weather packets the latest 10 day(s).
| Time | Temp. | Humidity | Pressure | Rain* | Wind** | Luminosity | Snow |
|---|---|---|---|---|---|---|---|
| 1788288091 | 33.89° C | 55% | 1015.6 hPa | 0 mm | - | 660 W/m² | - |
| 1788287786 | 33.89° C | 57% | 1015.9 hPa | 0 mm | - | 674 W/m² | - |
| 1788287499 | 33.89° C | 58% | 1015.9 hPa | 0 mm | - | 696 W/m² | - |
| 1788287178 | 33.89° C | 58% | 1016.1 hPa | 0 mm | - | 722 W/m² | - |
| 1788286876 | 35° C | 57% | 1015.8 hPa | 0 mm | - | 154 W/m² | - |
| 1788286570 | 34.44° C | 58% | 1015.7 hPa | 0 mm | - | 726 W/m² | - |
| 1788286270 | 33.89° C | 57% | 1016 hPa | 0 mm | - | 763 W/m² | - |
| 1788285964 | 33.89° C | 56% | 1015.8 hPa | 0 mm | - | 737 W/m² | - |
| 1788285658 | 33.89° C | 60% | 1016.3 hPa | 0 mm | - | 696 W/m² | - |
| 1788285351 | 33.89° C | 60% | 1016.1 hPa | 0 mm | - | 703 W/m² | - |
| 1788285046 | 33.89° C | 61% | 1016.2 hPa | 0 mm | - | 709 W/m² | - |
| 1788284742 | 33.89° C | 60% | 1016.2 hPa | 0 mm | - | 501 W/m² | - |
| 1788284438 | 33.89° C | 61% | 1016.3 hPa | 0 mm | - | 741 W/m² | - |
| 1788284132 | 33.33° C | 62% | 1016.4 hPa | 0 mm | - | 731 W/m² | - |
| 1788283829 | 33.89° C | 61% | 1016.5 hPa | 0 mm | - | 759 W/m² | - |
| 1788283524 | 34.44° C | 60% | 1016.6 hPa | 0 mm | - | 789 W/m² | - |
| 1788283222 | 33.33° C | 65% | 1016.6 hPa | 0 mm | - | 810 W/m² | - |
| 1788282921 | 33.89° C | 65% | 1016.6 hPa | 0 mm | - | 839 W/m² | - |
| 1788282620 | 33.33° C | 69% | 1016.9 hPa | 0 mm | - | 800 W/m² | - |
| 1788282314 | 32.22° C | 67% | 1017 hPa | 0 mm | - | 787 W/m² | - |
| 1788282009 | 32.22° C | 70% | 1017 hPa | 0 mm | - | 821 W/m² | - |
| 1788281721 | 31.67° C | 74% | 1017 hPa | 0 mm | - | 762 W/m² | - |
| 1788281399 | 31.67° C | 73% | 1017.3 hPa | 0 mm | - | 103 W/m² | - |
| 1788281094 | 32.22° C | 70% | 1016.9 hPa | 0 mm | - | 134 W/m² | - |
| 1788280789 | 32.78° C | 70% | 1017.1 hPa | 0 mm | - | 442 W/m² | - |
* Rain latest hour (hover to see other rain measurements)
** Current wind speed in m/s (hover to see current wind gust speed)